Date,Time,Wetness (Wet Dry or Ice),Wind Speed (m/s),Temperature (C),Humidity (%),Pressure (mb),Radiation (W/m^2)
2022-06-01,00:20:00,DRY,3.83,8.07,7.3,771.00,1.0
2022-06-01,00:25:00,DRY,3.25,8.10,7.5,771.00,1.5
2022-06-01,00:30:00,DRY,5.17,8.17,6.3,771.00,1.0
2022-06-01,00:35:00,DRY,3.45,8.15,7.0,771.00,1.2
2022-06-01,00:40:00,DRY,3.97,8.13,6.7,771.00,1.5
2022-06-01,00:45:00,DRY,6.15,8.15,7.0,771.00,0.9
2022-06-01,00:50:00,DRY,6.63,8.10,7.7,771.00,1.1
2022-06-01,00:55:00,DRY,5.90,8.25,7.0,771.00,1.2
2022-06-01,01:00:00,DRY,4.37,8.17,8.3,771.00,1.1
2022-06-01,01:05:00,DRY,5.75,8.30,8.0,771.00,0.9
2022-06-01,01:10:00,DRY,5.90,8.50,7.0,771.00,1.0
2022-06-01,01:15:00,DRY,6.15,8.80,6.5,771.00,1.0
2022-06-01,01:20:00,DRY,6.00,8.70,7.3,771.00,1.5
2022-06-01,01:25:00,DRY,6.60,8.95,6.0,771.00,1.2
2022-06-01,01:30:00,DRY,6.43,9.10,5.7,771.00,1.2
2022-06-01,01:35:00,DRY,6.40,9.15,7.0,771.00,1.1
2022-06-01,01:40:00,DRY,6.20,9.13,6.7,771.00,1.1
2022-06-01,01:45:00,DRY,7.25,8.95,6.5,771.00,1.4
2022-06-01,01:50:00,DRY,5.83,8.87,6.7,771.00,1.5
2022-06-01,01:55:00,DRY,8.05,8.80,8.0,771.00,0.9
2022-06-01,02:00:00,DRY,6.77,8.43,11.3,771.00,1.3
2022-06-01,02:05:00,DRY,6.95,8.15,14.0,771.00,1.3
2022-06-01,02:10:00,DRY,6.60,8.07,14.3,770.67,1.4
2022-06-01,02:15:00,DRY,8.35,8.15,11.5,770.50,1.1
2022-06-01,02:20:00,DRY,6.10,8.10,14.3,770.67,1.4
2022-06-01,02:25:00,DRY,8.20,8.00,15.0,770.50,1.1
2022-06-01,02:30:00,DRY,7.10,8.23,15.0,770.33,1.0
2022-06-01,02:35:00,DRY,8.80,8.05,15.0,770.00,1.2
2022-06-01,02:40:00,DRY,7.70,8.07,17.3,770.00,1.3
2022-06-01,02:45:00,DRY,7.30,7.90,18.0,770.00,0.5
2022-06-01,02:50:00,DRY,7.37,7.90,18.7,770.00,1.0
2022-06-01,02:55:00,DRY,4.90,7.70,19.0,770.00,1.4
2022-06-01,03:00:00,DRY,3.60,7.73,18.7,770.00,1.1
2022-06-01,03:05:00,DRY,6.55,7.95,19.0,770.00,1.4
2022-06-01,03:10:00,DRY,4.47,8.00,18.3,770.00,1.2
2022-06-01,03:15:00,DRY,6.15,8.50,16.5,770.00,1.1
2022-06-01,03:20:00,DRY,5.63,8.83,16.0,770.33,1.1
2022-06-01,03:25:00,DRY,3.95,8.50,16.0,770.00,0.9
2022-06-01,03:30:00,DRY,5.57,8.43,14.7,770.00,1.0
2022-06-01,03:35:00,DRY,4.30,8.45,16.0,770.00,0.9
2022-06-01,03:40:00,DRY,4.40,8.47,15.7,770.00,1.2
2022-06-01,03:45:00,DRY,5.35,8.50,14.5,770.00,1.1
2022-06-01,03:50:00,DRY,4.10,8.53,14.7,770.00,1.2
2022-06-01,03:55:00,DRY,5.40,8.45,16.0,770.00,1.4
2022-06-01,04:00:00,DRY,4.83,8.50,14.7,770.00,1.5
2022-06-01,04:05:00,DRY,3.25,8.60,12.0,770.00,1.6
2022-06-01,04:10:00,DRY,4.63,8.83,11.0,770.00,1.5
2022-06-01,04:15:00,DRY,5.65,8.85,9.5,770.00,1.2
2022-06-01,04:20:00,DRY,4.03,9.10,8.0,770.00,1.3
2022-06-01,04:25:00,DRY,3.10,9.10,8.0,770.00,1.7
2022-06-01,04:30:00,DRY,3.20,9.30,7.3,770.00,1.2
2022-06-01,04:35:00,DRY,5.20,9.25,7.5,770.00,1.4
2022-06-01,04:40:00,DRY,3.93,8.97,10.0,770.00,1.7
2022-06-01,04:45:00,DRY,3.85,9.15,8.0,770.00,1.4
2022-06-01,04:50:00,DRY,7.07,9.37,5.7,770.00,1.0
2022-06-01,04:55:00,DRY,5.40,9.45,5.5,770.00,0.9
2022-06-01,05:00:00,DRY,7.03,9.33,5.7,770.00,1.3
2022-06-01,05:05:00,DRY,6.40,9.50,5.0,770.00,1.0
2022-06-01,05:10:00,DRY,7.13,9.40,5.0,770.00,1.2
2022-06-01,05:15:00,DRY,7.50,9.20,5.5,770.00,1.2
2022-06-01,05:20:00,DRY,8.60,8.90,6.3,770.00,1.4
2022-06-01,05:25:00,DRY,8.80,8.90,6.5,770.00,1.1
2022-06-01,05:30:00,DRY,9.07,8.97,6.0,770.00,1.9
2022-06-01,05:35:00,DRY,6.85,8.90,6.5,770.00,1.4
2022-06-01,05:40:00,DRY,7.37,8.97,4.3,770.00,1.4
2022-06-01,05:45:00,DRY,7.10,9.00,4.0,770.00,1.5
2022-06-01,05:50:00,DRY,8.17,8.90,4.0,770.00,1.3
2022-06-01,05:55:00,DRY,6.90,8.90,4.5,770.00,1.8
2022-06-01,06:00:00,DRY,6.87,9.10,3.0,770.33,2.2
2022-06-01,06:05:00,DRY,7.00,9.15,3.0,770.00,4.0
2022-06-01,06:10:00,DRY,7.57,9.30,3.7,770.67,5.8
2022-06-01,06:15:00,DRY,7.10,9.40,3.5,771.00,9.2
2022-06-01,06:20:00,DRY,7.57,9.33,3.3,770.67,24.8
2022-06-01,06:25:00,DRY,4.95,9.40,3.0,771.00,39.7
2022-06-01,06:30:00,DRY,7.63,9.60,2.7,770.67,43.3
2022-06-01,06:35:00,DRY,8.00,9.55,2.5,771.00,35.6
2022-06-01,06:40:00,DRY,7.13,9.33,3.7,771.00,96.0
2022-06-01,06:45:00,DRY,7.25,9.40,4.0,771.00,123.5
2022-06-01,06:50:00,DRY,6.97,9.33,4.3,771.00,143.6
2022-06-01,06:55:00,DRY,6.75,9.45,4.5,771.00,162.8
2022-06-01,07:00:00,DRY,7.10,9.53,4.3,771.00,185.5
2022-06-01,07:05:00,DRY,8.30,9.55,4.5,771.00,208.5
2022-06-01,07:10:00,DRY,7.50,9.43,4.3,771.00,231.2
2022-06-01,07:15:00,DRY,7.75,9.75,4.0,771.00,253.8
2022-06-01,07:20:00,DRY,5.93,9.73,4.0,771.00,274.7
2022-06-01,07:25:00,DRY,5.60,9.60,4.5,771.00,298.2
2022-06-01,07:30:00,DRY,6.77,9.80,4.0,771.00,320.9
2022-06-01,07:35:00,DRY,7.70,9.80,5.0,771.00,343.6
2022-06-01,07:40:00,DRY,5.27,9.83,4.3,771.00,365.2
2022-06-01,07:45:00,DRY,6.20,9.70,4.5,771.00,387.6
2022-06-01,07:50:00,DRY,5.70,9.63,4.0,771.00,409.6
2022-06-01,07:55:00,DRY,4.05,9.75,3.5,771.00,431.5
2022-06-01,08:00:00,DRY,4.77,9.83,4.0,771.33,453.8
2022-06-01,08:05:00,DRY,3.95,10.30,3.5,771.00,477.1
2022-06-01,08:10:00,DRY,4.83,10.10,3.7,772.00,497.7
2022-06-01,08:15:00,DRY,4.55,9.85,3.5,772.00,520.0
2022-06-01,08:20:00,DRY,3.27,10.10,5.0,771.67,542.8
2022-06-01,08:25:00,DRY,4.25,10.25,5.0,772.00,563.2
2022-06-01,08:30:00,DRY,4.77,10.43,5.7,771.00,586.2
2022-06-01,08:35:00,DRY,5.65,10.35,6.0,771.00,605.1
2022-06-01,08:40:00,DRY,4.97,10.33,6.3,772.00,625.3
2022-06-01,08:45:00,DRY,3.40,10.25,6.5,772.00,645.5
2022-06-01,08:50:00,DRY,6.03,10.40,6.3,772.00,665.9
2022-06-01,08:55:00,DRY,4.30,10.60,5.0,772.00,685.9
2022-06-01,09:00:00,DRY,4.90,10.63,6.7,772.00,704.6
2022-06-01,09:05:00,DRY,4.85,10.60,6.5,772.00,723.9
2022-06-01,09:10:00,DRY,3.57,10.67,6.7,772.00,744.1
2022-06-01,09:15:00,DRY,4.55,10.70,7.0,772.00,764.5
2022-06-01,09:20:00,DRY,5.43,10.90,7.0,772.00,782.8
2022-06-01,09:25:00,DRY,5.95,10.90,7.0,772.00,800.7
2022-06-01,09:30:00,DRY,5.37,10.97,7.0,772.00,818.0
2022-06-01,09:35:00,DRY,2.20,11.05,7.5,772.00,835.5
2022-06-01,09:40:00,DRY,2.87,11.13,7.7,772.00,854.5
2022-06-01,09:45:00,DRY,2.45,11.25,8.0,772.00,871.5
2022-06-01,09:50:00,DRY,3.87,11.27,9.7,772.00,888.6
2022-06-01,09:55:00,DRY,4.40,11.35,9.5,772.00,902.5
2022-06-01,10:00:00,DRY,5.30,11.53,10.0,772.00,918.9
2022-06-01,10:05:00,DRY,4.35,11.60,9.0,772.00,934.0
2022-06-01,10:10:00,DRY,3.57,11.73,13.0,772.00,949.4
2022-06-01,10:15:00,DRY,5.05,11.70,11.0,772.00,965.8
2022-06-01,10:20:00,DRY,4.73,11.87,12.3,772.00,981.2
2022-06-01,10:25:00,DRY,5.40,11.80,12.0,772.00,996.5
2022-06-01,10:30:00,DRY,5.83,11.77,9.0,772.00,1010.7
2022-06-01,10:35:00,DRY,3.90,11.75,10.0,772.00,1023.7
2022-06-01,10:40:00,DRY,3.20,11.67,11.3,772.00,1040.9
2022-06-01,10:45:00,DRY,2.45,11.50,10.5,772.00,1041.5
2022-06-01,10:50:00,DRY,3.37,11.67,14.7,772.00,1063.5
2022-06-01,10:55:00,DRY,5.05,11.75,13.0,772.00,1077.3
2022-06-01,11:00:00,DRY,2.63,11.80,17.7,772.00,1090.4
2022-06-01,11:05:00,DRY,2.00,12.10,17.5,772.00,1092.2
2022-06-01,11:10:00,DRY,2.90,11.67,17.0,772.00,1110.7
2022-06-01,11:15:00,DRY,3.15,11.60,18.5,772.50,1062.6
2022-06-01,11:20:00,DRY,2.80,11.63,20.7,773.00,1110.6
2022-06-01,11:25:00,DRY,2.80,11.65,17.0,773.00,1133.9
2022-06-01,11:30:00,DRY,3.40,11.67,24.3,773.00,1141.2
2022-06-01,11:35:00,DRY,2.60,11.35,18.0,773.00,1155.1
2022-06-01,11:40:00,DRY,2.03,11.83,23.3,773.00,1144.1
2022-06-01,11:45:00,DRY,3.05,12.05,26.0,773.00,1168.7
2022-06-01,11:50:00,DRY,4.07,11.40,20.0,773.00,1174.8
2022-06-01,11:55:00,DRY,3.45,11.75,23.5,773.00,1180.8
2022-06-01,12:00:00,DRY,2.33,12.10,25.0,773.00,1183.0
2022-06-01,12:05:00,DRY,2.15,12.10,22.0,773.00,1179.2
2022-06-01,12:10:00,DRY,3.40,12.30,24.7,773.00,1195.2
2022-06-01,12:15:00,DRY,2.60,12.15,24.0,773.00,1189.8
2022-06-01,12:20:00,DRY,1.30,12.40,34.0,773.00,1170.1
2022-06-01,12:25:00,DRY,2.75,12.70,32.5,773.00,1168.6
2022-06-01,12:30:00,DRY,1.73,12.13,36.0,773.00,1153.0
2022-06-01,12:35:00,DRY,2.45,12.45,42.0,773.00,1214.5
2022-06-01,12:40:00,DRY,1.90,12.23,54.7,773.00,1219.2
2022-06-01,12:45:00,DRY,2.35,11.80,43.0,773.00,1232.9
2022-06-01,12:50:00,DRY,2.30,12.00,33.7,773.00,1226.7
2022-06-01,12:55:00,DRY,1.80,12.35,36.0,773.00,1211.2
2022-06-01,13:00:00,DRY,1.77,12.33,44.3,773.00,1198.7
2022-06-01,13:05:00,DRY,2.20,12.25,35.5,773.00,1092.8
2022-06-01,13:10:00,DRY,3.07,12.53,18.3,773.00,1129.0
2022-06-01,13:15:00,DRY,1.75,12.35,18.0,773.00,1196.1
2022-06-01,13:20:00,DRY,2.57,12.53,16.3,773.00,1271.7
2022-06-01,13:25:00,DRY,1.40,12.75,18.0,773.00,1152.5
2022-06-01,13:30:00,DRY,1.30,13.70,18.5,773.00,1299.3
2022-06-01,13:35:00,DRY,4.10,14.20,17.0,773.00,1274.3
2022-06-01,13:40:00,DRY,2.37,13.97,18.7,773.00,1124.1
2022-06-01,13:45:00,DRY,2.05,13.80,18.5,773.00,1002.5
2022-06-01,13:50:00,DRY,1.97,14.07,17.7,773.00,1198.1
2022-06-01,13:55:00,DRY,1.95,14.10,18.5,773.00,1200.4
2022-06-01,14:00:00,DRY,4.27,14.27,17.7,773.00,1291.7
2022-06-01,14:05:00,DRY,2.50,14.15,18.0,773.00,1166.0
2022-06-01,14:10:00,DRY,3.30,14.40,22.7,773.00,1156.6
2022-06-01,14:15:00,DRY,3.15,14.20,23.0,773.00,1225.3
2022-06-01,14:20:00,DRY,3.80,14.07,15.7,773.00,1226.4
2022-06-01,14:25:00,DRY,2.45,14.50,14.5,773.00,1194.1
2022-06-01,14:30:00,DRY,4.10,14.30,13.7,773.00,1147.0
2022-06-01,14:35:00,DRY,2.90,14.15,19.5,773.00,1093.2
2022-06-01,14:40:00,DRY,3.43,13.80,17.0,773.00,1229.8
2022-06-01,14:45:00,DRY,1.70,13.50,16.0,773.00,1106.8
2022-06-01,14:50:00,DRY,3.77,13.67,19.3,772.33,1116.3
2022-06-01,14:55:00,DRY,3.25,13.80,18.0,772.00,1211.8
2022-06-01,15:00:00,DRY,0.95,14.05,45.5,772.50,1154.0
2022-06-01,15:05:00,DRY,2.65,13.90,19.0,773.00,1024.2
2022-06-01,15:10:00,DRY,3.33,13.50,46.3,772.67,987.6
2022-06-01,15:15:00,DRY,1.85,13.40,45.5,773.00,1170.6
2022-06-01,15:20:00,DRY,2.50,12.87,30.3,772.33,1100.1
2022-06-01,15:25:00,DRY,1.90,13.10,30.0,772.00,1080.1
2022-06-01,15:30:00,DRY,1.77,13.33,42.7,772.00,1119.5
2022-06-01,15:35:00,DRY,1.55,13.60,44.0,772.00,1029.0
2022-06-01,15:40:00,DRY,1.30,12.70,42.7,772.00,984.8
2022-06-01,15:45:00,DRY,2.25,12.60,48.0,772.00,993.0
2022-06-01,15:50:00,DRY,1.57,12.80,39.7,772.00,853.7
2022-06-01,15:55:00,DRY,1.70,12.95,35.0,772.00,872.5
2022-06-01,16:00:00,DRY,1.80,12.50,45.7,772.00,950.8
2022-06-01,16:05:00,DRY,1.85,12.00,37.5,772.00,989.4
2022-06-01,16:10:00,DRY,2.57,12.60,33.7,772.00,953.9
2022-06-01,16:15:00,DRY,1.75,12.75,24.0,772.00,908.6
2022-06-01,16:20:00,DRY,3.03,12.80,31.0,772.00,922.8
2022-06-01,16:25:00,DRY,2.70,13.05,28.0,772.00,825.9
2022-06-01,16:30:00,DRY,1.70,12.90,28.0,772.00,880.7
2022-06-01,16:35:00,DRY,4.35,12.55,34.0,772.00,786.0
2022-06-01,16:40:00,DRY,2.40,12.27,37.0,772.00,788.8
2022-06-01,16:45:00,DRY,2.80,12.25,32.5,772.00,644.7
2022-06-01,16:50:00,DRY,3.83,12.00,32.7,772.00,731.7
2022-06-01,16:55:00,DRY,3.20,11.95,31.5,772.00,816.0
2022-06-01,17:00:00,DRY,4.30,12.30,27.7,772.00,793.5
2022-06-01,17:05:00,DRY,4.10,12.30,26.5,772.00,774.8
2022-06-01,17:10:00,DRY,3.20,12.37,25.0,772.00,766.4
2022-06-01,17:15:00,DRY,4.15,12.10,23.0,772.00,736.6
2022-06-01,17:20:00,DRY,2.87,12.00,24.7,772.00,689.3
2022-06-01,17:25:00,DRY,3.20,11.65,30.5,772.00,658.7
2022-06-01,17:30:00,DRY,2.43,12.03,30.0,772.00,636.2
2022-06-01,17:35:00,DRY,2.15,12.10,24.0,772.00,616.1
2022-06-01,17:40:00,DRY,1.67,12.50,27.0,772.00,597.1
2022-06-01,17:45:00,DRY,2.35,12.25,31.0,772.00,572.0
2022-06-01,17:50:00,DRY,3.07,11.67,34.0,772.00,484.0
2022-06-01,17:55:00,DRY,1.95,11.65,27.0,772.00,460.0
2022-06-01,18:00:00,DRY,1.37,11.40,28.3,772.00,409.7
2022-06-01,18:05:00,DRY,2.45,11.35,31.0,772.00,249.3
2022-06-01,18:10:00,DRY,2.07,10.77,32.0,772.00,223.8
2022-06-01,18:15:00,DRY,1.65,10.35,40.5,772.00,259.4
2022-06-01,18:20:00,DRY,2.40,10.50,30.3,772.00,320.7
2022-06-01,18:25:00,DRY,2.15,10.95,30.5,772.00,396.1
2022-06-01,18:30:00,DRY,2.30,10.95,32.5,772.00,405.7
2022-06-01,18:35:00,,,,,,
2022-06-01,18:40:00,,,,,,
2022-06-01,18:45:00,DRY,1.80,11.30,25.0,772.00,250.5
2022-06-01,18:50:00,DRY,1.63,10.57,29.7,772.67,203.0
2022-06-01,18:55:00,DRY,1.85,10.10,28.5,773.00,177.9
2022-06-01,19:00:00,DRY,1.43,9.83,33.0,773.00,238.1
2022-06-01,19:05:00,DRY,1.20,10.45,34.0,773.00,305.2
2022-06-01,19:10:00,DRY,1.83,10.47,30.3,773.00,201.4
2022-06-01,19:15:00,DRY,1.25,10.20,28.0,773.00,187.9
2022-06-01,19:20:00,DRY,1.60,9.80,29.3,773.00,83.2
2022-06-01,19:25:00,DRY,1.60,9.35,29.5,773.00,65.2
2022-06-01,19:30:00,DRY,1.53,9.23,27.3,773.00,68.9
2022-06-01,19:35:00,DRY,1.85,9.35,25.5,773.00,115.9
2022-06-01,19:40:00,DRY,1.67,9.70,25.3,773.00,93.0
2022-06-01,19:45:00,DRY,1.05,10.05,24.5,773.00,64.3
2022-06-01,19:50:00,DRY,1.97,9.87,23.7,773.00,43.7
2022-06-01,19:55:00,DRY,2.70,9.70,24.0,773.00,29.8
2022-06-01,20:00:00,DRY,1.50,9.67,24.3,773.00,20.4
2022-06-01,20:05:00,DRY,1.35,9.60,26.5,773.00,12.4
2022-06-01,20:10:00,DRY,2.20,9.03,28.3,773.00,7.4
2022-06-01,20:15:00,DRY,2.10,9.05,25.5,773.00,3.7
2022-06-01,20:20:00,DRY,3.27,9.37,23.7,773.00,3.7
2022-06-01,20:25:00,DRY,2.45,9.15,24.5,773.00,1.6
2022-06-01,20:30:00,DRY,2.97,9.13,23.0,773.00,1.1
2022-06-01,20:35:00,DRY,2.85,9.25,23.0,773.00,1.4
2022-06-01,20:40:00,DRY,2.97,9.20,23.3,773.00,1.5
2022-06-01,20:45:00,DRY,2.80,8.90,24.0,773.00,1.0
2022-06-01,20:50:00,DRY,2.23,8.23,27.0,773.00,1.1
2022-06-01,20:55:00,DRY,2.95,7.90,29.0,773.00,1.6
2022-06-01,21:00:00,DRY,2.13,7.83,29.7,773.00,1.3
2022-06-01,21:05:00,DRY,2.45,7.95,27.5,773.00,0.3
2022-06-01,21:10:00,DRY,3.10,8.93,24.0,773.00,1.1
2022-06-01,21:15:00,DRY,2.85,9.20,23.5,773.00,1.0
2022-06-01,21:20:00,DRY,2.63,8.90,24.0,773.00,1.1
2022-06-01,21:25:00,DRY,2.40,8.65,25.0,773.00,0.9
2022-06-01,21:30:00,DRY,1.50,8.60,25.0,773.00,2.0
2022-06-01,21:35:00,DRY,1.95,8.70,24.5,773.00,1.1
2022-06-01,21:40:00,DRY,2.17,8.87,24.7,773.00,1.6
2022-06-01,21:45:00,DRY,1.85,8.15,28.0,773.00,1.6
2022-06-01,21:50:00,DRY,1.57,8.17,27.0,773.33,0.9
2022-06-01,21:55:00,DRY,1.85,8.35,26.0,773.00,1.3
2022-06-01,22:00:00,DRY,3.50,8.53,25.7,773.67,1.2
2022-06-01,22:05:00,DRY,1.55,8.35,37.0,774.00,0.6
2022-06-01,22:10:00,DRY,1.60,8.00,31.7,773.67,1.1
2022-06-01,22:15:00,DRY,2.75,8.20,27.5,774.00,1.4
2022-06-01,22:20:00,DRY,3.30,8.80,25.3,774.00,1.1
2022-06-01,22:25:00,DRY,3.45,8.55,25.0,774.00,1.1
2022-06-01,22:30:00,DRY,2.83,8.17,28.3,774.00,1.4
2022-06-01,22:35:00,DRY,2.65,7.80,28.5,774.00,2.2
2022-06-01,22:40:00,DRY,2.20,8.43,25.3,774.00,1.0
2022-06-01,22:45:00,DRY,4.05,8.75,25.0,774.00,1.4
2022-06-01,22:50:00,DRY,2.33,9.00,25.0,774.00,0.8
2022-06-01,22:55:00,DRY,2.55,9.05,24.0,774.00,1.2
2022-06-01,23:00:00,DRY,2.00,8.97,24.0,774.00,2.0
2022-06-01,23:05:00,DRY,2.95,8.90,24.0,774.00,1.3
2022-06-01,23:10:00,DRY,3.00,8.87,25.0,774.00,1.7
2022-06-01,23:15:00,DRY,3.45,9.00,25.0,774.00,0.5
2022-06-01,23:20:00,DRY,2.93,8.83,24.3,774.00,1.2
2022-06-01,23:25:00,DRY,3.05,8.75,25.0,774.00,0.9
2022-06-01,23:30:00,DRY,2.87,8.60,25.0,774.00,1.6
2022-06-01,23:35:00,DRY,3.00,8.65,25.0,774.00,1.4
2022-06-01,23:40:00,DRY,3.27,8.83,25.0,774.00,1.7
2022-06-01,23:45:00,DRY,5.50,8.85,25.0,774.00,1.1
2022-06-01,23:50:00,DRY,3.70,8.57,25.0,774.00,1.8
2022-06-01,23:55:00,DRY,4.95,8.55,25.0,774.00,1.1
2022-06-02,00:00:00,DRY,5.10,8.47,25.0,774.00,1.5
2022-06-02,00:05:00,DRY,4.70,8.20,25.5,774.00,1.2
2022-06-02,00:10:00,DRY,5.27,8.17,25.3,773.67,1.2
2022-06-02,00:15:00,DRY,5.85,8.20,25.0,773.00,1.1
2022-06-02,00:20:00,DRY,5.27,8.10,25.0,773.33,1.2
2022-06-02,00:25:00,DRY,5.20,7.70,28.0,773.00,1.5
2022-06-02,00:30:00,DRY,3.90,7.10,31.3,773.67,1.4
2022-06-02,00:35:00,DRY,4.30,7.45,28.5,773.00,1.5
2022-06-02,00:40:00,DRY,4.40,7.70,26.7,773.00,1.7
2022-06-02,00:45:00,DRY,5.95,8.05,26.0,773.00,1.2
2022-06-02,00:50:00,DRY,5.23,7.90,25.7,773.00,1.2
2022-06-02,00:55:00,DRY,5.00,7.60,27.5,773.00,0.7
2022-06-02,01:00:00,DRY,4.53,7.27,31.0,773.00,1.0
2022-06-02,01:05:00,DRY,5.40,7.55,27.0,773.00,0.9
2022-06-02,01:10:00,DRY,3.20,7.67,26.7,773.00,1.1
2022-06-02,01:15:00,DRY,2.85,7.55,27.0,773.00,0.7
2022-06-02,01:20:00,DRY,2.70,7.73,26.3,773.00,1.2
2022-06-02,01:25:00,DRY,2.70,7.65,27.0,773.00,1.5
2022-06-02,01:30:00,DRY,4.10,7.63,26.7,773.00,1.1
2022-06-02,01:35:00,DRY,4.05,7.50,27.5,773.00,1.4
2022-06-02,01:40:00,DRY,3.90,7.20,29.0,773.00,1.3
2022-06-02,01:45:00,DRY,5.30,7.35,28.0,773.00,0.8
2022-06-02,01:50:00,DRY,3.73,7.33,27.7,773.00,0.6
2022-06-02,01:55:00,DRY,3.55,7.30,27.5,773.00,0.9
2022-06-02,02:00:00,DRY,2.97,7.03,30.0,773.00,1.4
2022-06-02,02:05:00,DRY,4.20,7.10,29.0,773.00,1.0
2022-06-02,02:10:00,DRY,4.40,7.37,28.0,773.00,1.1
2022-06-02,02:15:00,DRY,3.70,7.80,24.5,773.00,1.1
2022-06-02,02:20:00,DRY,4.40,7.43,27.7,773.00,1.0
2022-06-02,02:25:00,DRY,4.35,7.40,28.0,773.00,1.2
2022-06-02,02:30:00,DRY,4.33,7.50,26.7,773.00,1.2
2022-06-02,02:35:00,DRY,4.05,7.45,27.0,773.00,1.0
2022-06-02,02:40:00,DRY,4.03,7.73,25.3,773.00,1.2
2022-06-02,02:45:00,DRY,4.70,7.90,25.0,773.00,1.1
2022-06-02,02:50:00,DRY,4.30,8.07,23.7,773.00,1.0
2022-06-02,02:55:00,DRY,3.30,8.05,24.0,773.00,0.5
2022-06-02,03:00:00,DRY,3.07,7.93,24.0,773.00,1.0
2022-06-02,03:05:00,DRY,3.30,7.90,25.5,773.00,1.1
2022-06-02,03:10:00,DRY,3.83,7.77,25.7,773.00,0.8
2022-06-02,03:15:00,DRY,4.35,7.95,23.5,773.00,1.1
2022-06-02,03:20:00,DRY,3.93,8.07,23.0,773.00,1.2
2022-06-02,03:25:00,DRY,3.60,7.85,24.5,773.00,1.2
2022-06-02,03:30:00,DRY,3.40,7.57,25.7,773.00,0.6
2022-06-02,03:35:00,DRY,3.65,7.80,23.5,773.00,0.7
2022-06-02,03:40:00,DRY,2.40,7.87,23.7,773.00,1.4
2022-06-02,03:45:00,DRY,2.40,7.75,24.5,773.00,1.2
2022-06-02,03:50:00,DRY,3.03,7.60,25.3,773.00,0.9
2022-06-02,03:55:00,DRY,1.85,7.75,26.0,773.00,0.6
2022-06-02,04:00:00,DRY,3.17,7.77,24.0,773.00,1.1
2022-06-02,04:05:00,DRY,2.95,7.65,25.5,773.00,1.2
2022-06-02,04:10:00,DRY,2.43,7.93,23.3,773.00,1.2
2022-06-02,04:15:00,DRY,2.85,8.00,20.5,773.00,1.8
2022-06-02,04:20:00,DRY,2.00,8.33,18.7,773.00,1.4
2022-06-02,04:25:00,DRY,2.35,8.40,19.0,773.00,1.0
2022-06-02,04:30:00,DRY,2.87,8.23,19.7,773.00,1.3
2022-06-02,04:35:00,DRY,3.40,8.25,19.5,773.00,2.3
2022-06-02,04:40:00,DRY,3.73,8.13,20.7,773.00,0.8
2022-06-02,04:45:00,DRY,3.05,8.00,22.5,773.00,0.7
2022-06-02,04:50:00,DRY,3.73,7.80,25.3,773.00,1.1
2022-06-02,04:55:00,DRY,3.30,7.50,26.0,773.00,1.3
2022-06-02,05:00:00,DRY,2.07,7.43,27.3,773.00,1.1
2022-06-02,05:05:00,DRY,2.30,7.35,27.5,773.00,0.6
2022-06-02,05:10:00,DRY,2.47,7.30,27.7,773.00,1.8
2022-06-02,05:15:00,DRY,3.30,7.20,28.0,773.00,1.4
2022-06-02,05:20:00,DRY,3.67,7.17,28.0,773.00,1.4
2022-06-02,05:25:00,DRY,2.70,7.50,21.5,773.00,0.9
2022-06-02,05:30:00,DRY,2.97,7.67,22.7,773.00,1.3
2022-06-02,05:35:00,DRY,2.90,7.50,22.0,773.00,1.7
2022-06-02,05:40:00,DRY,2.10,7.70,20.7,773.00,0.7
2022-06-02,05:45:00,DRY,1.95,7.70,18.0,773.00,1.4
2022-06-02,05:50:00,DRY,1.37,7.83,17.0,773.00,2.7
2022-06-02,05:55:00,DRY,3.25,7.95,18.0,773.00,1.1
2022-06-02,06:00:00,DRY,2.00,7.97,15.0,773.00,2.1
2022-06-02,06:05:00,DRY,1.75,8.15,15.5,773.00,4.0
2022-06-02,06:10:00,DRY,2.00,8.37,13.7,773.00,5.9
2022-06-02,06:15:00,DRY,1.55,8.40,13.0,773.00,8.4
2022-06-02,06:20:00,DRY,1.23,8.40,13.0,773.00,25.2
2022-06-02,06:25:00,DRY,1.40,8.40,12.5,773.00,41.7
2022-06-02,06:30:00,DRY,1.27,8.40,13.0,773.00,47.8
2022-06-02,06:35:00,DRY,1.50,8.45,12.5,773.00,33.9
2022-06-02,06:40:00,DRY,2.30,8.63,12.3,773.00,95.5
2022-06-02,06:45:00,DRY,2.80,8.75,12.0,773.00,126.5
2022-06-02,06:50:00,DRY,2.23,8.80,11.7,773.00,146.2
2022-06-02,06:55:00,DRY,3.30,8.85,12.0,773.00,167.2
2022-06-02,07:00:00,DRY,1.03,8.90,12.0,773.00,189.4
2022-06-02,07:05:00,DRY,1.40,8.90,12.5,773.00,211.6
2022-06-02,07:10:00,DRY,2.17,8.53,14.3,773.00,234.9
2022-06-02,07:15:00,DRY,2.25,8.45,13.0,773.00,259.1
2022-06-02,07:20:00,DRY,2.60,8.73,12.0,773.00,281.6
2022-06-02,07:25:00,DRY,2.20,8.65,11.5,773.00,304.5
2022-06-02,07:30:00,DRY,2.10,8.73,12.7,773.00,327.3
2022-06-02,07:35:00,DRY,1.35,8.60,13.5,773.00,350.1
2022-06-02,07:40:00,DRY,1.30,8.83,11.7,773.00,374.0
2022-06-02,07:45:00,DRY,1.00,9.00,10.0,773.00,396.4
2022-06-02,07:50:00,DRY,2.13,9.10,11.0,773.00,420.9
2022-06-02,07:55:00,DRY,2.30,9.30,9.5,773.00,443.6
2022-06-02,08:00:00,DRY,1.47,9.53,6.7,773.00,466.6
2022-06-02,08:05:00,DRY,1.10,9.60,6.5,773.00,489.2
2022-06-02,08:10:00,DRY,1.53,9.90,5.3,773.00,511.5
2022-06-02,08:15:00,DRY,1.35,10.00,5.5,773.00,535.0
2022-06-02,08:20:00,DRY,1.77,10.17,4.3,773.00,557.2
2022-06-02,08:25:00,DRY,1.55,10.25,4.5,773.00,580.6
2022-06-02,08:30:00,DRY,3.10,10.40,4.3,773.00,600.7
2022-06-02,08:35:00,DRY,2.35,10.50,3.5,773.00,623.2
2022-06-02,08:40:00,DRY,2.10,10.77,5.3,773.00,644.1
2022-06-02,08:45:00,DRY,2.95,10.85,6.0,773.00,664.4
2022-06-02,08:50:00,DRY,3.37,10.70,4.7,773.00,685.4
2022-06-02,08:55:00,DRY,2.90,10.70,5.5,773.00,704.0
2022-06-02,09:00:00,DRY,2.93,10.87,5.3,773.00,725.8
2022-06-02,09:05:00,DRY,1.70,10.85,7.5,773.00,744.4
2022-06-02,09:10:00,DRY,1.60,11.07,6.0,773.00,765.1
2022-06-02,09:15:00,DRY,0.75,11.15,6.0,773.00,787.0
2022-06-02,09:20:00,DRY,1.10,11.27,5.7,773.00,805.0
2022-06-02,09:25:00,DRY,2.20,11.35,7.0,773.00,823.5
2022-06-02,09:30:00,DRY,2.07,11.40,7.0,773.00,842.4
2022-06-02,09:35:00,DRY,3.90,11.50,8.5,773.00,859.0
2022-06-02,09:40:00,DRY,2.87,11.37,9.3,773.00,876.3
2022-06-02,09:45:00,DRY,1.90,11.30,8.5,773.00,894.2
2022-06-02,09:50:00,DRY,2.30,11.07,9.7,773.33,910.6
2022-06-02,09:55:00,DRY,2.35,10.70,11.5,773.00,923.5
2022-06-02,10:00:00,DRY,3.07,10.90,12.3,773.00,940.9
2022-06-02,10:05:00,DRY,3.80,11.10,11.5,773.00,954.9
2022-06-02,10:10:00,DRY,3.00,11.30,8.3,774.00,971.3
2022-06-02,10:15:00,DRY,2.20,11.35,8.5,773.00,985.7
2022-06-02,10:20:00,DRY,2.63,11.63,8.3,773.67,999.6
2022-06-02,10:25:00,DRY,1.65,11.60,7.0,774.00,1015.2
2022-06-02,10:30:00,DRY,1.77,11.67,7.0,774.00,1028.9
2022-06-02,10:35:00,DRY,4.50,11.75,11.0,774.00,1041.0
2022-06-02,10:40:00,DRY,2.33,11.93,9.0,774.00,1055.5
2022-06-02,10:45:00,DRY,2.50,12.00,11.0,774.00,1069.0
2022-06-02,10:50:00,DRY,3.37,11.93,12.3,774.00,1080.2
2022-06-02,10:55:00,DRY,3.45,12.10,13.5,774.00,1092.9
2022-06-02,11:00:00,DRY,4.43,11.80,15.3,774.00,1103.2
2022-06-02,11:05:00,DRY,3.45,11.85,13.5,774.00,1112.6
2022-06-02,11:10:00,DRY,3.37,12.10,13.7,774.00,1122.6
2022-06-02,11:15:00,DRY,4.10,12.25,15.0,774.00,1131.8
2022-06-02,11:20:00,DRY,4.43,12.53,15.3,773.67,1142.6
2022-06-02,11:25:00,DRY,2.25,12.30,15.0,774.00,1150.5
2022-06-02,11:30:00,DRY,2.73,12.27,16.0,774.00,1158.7
2022-06-02,11:35:00,DRY,3.10,12.55,18.0,774.00,1166.1
2022-06-02,11:40:00,DRY,2.87,12.50,15.7,774.00,1172.4
2022-06-02,11:45:00,DRY,3.75,12.65,17.0,774.00,1178.9
2022-06-02,11:50:00,DRY,3.23,13.17,18.0,774.00,1186.3
2022-06-02,11:55:00,DRY,3.90,12.90,16.0,774.00,1194.0
2022-06-02,12:00:00,DRY,2.70,12.70,20.0,774.00,1196.7
2022-06-02,12:05:00,DRY,4.25,12.80,15.5,774.00,1199.8
2022-06-02,12:10:00,DRY,2.77,12.50,14.7,774.00,1206.3
2022-06-02,12:15:00,DRY,2.00,12.20,15.0,774.00,1208.6
2022-06-02,12:20:00,DRY,2.80,11.70,17.3,774.00,1214.9
2022-06-02,12:25:00,DRY,2.00,12.15,22.0,774.00,1217.5
2022-06-02,12:30:00,DRY,2.43,12.17,18.0,774.00,1219.8
2022-06-02,12:35:00,DRY,3.75,12.20,19.0,774.00,1221.2
2022-06-02,12:40:00,DRY,2.63,12.37,21.3,774.00,1223.9
2022-06-02,12:45:00,DRY,4.50,12.85,19.5,774.00,1225.8
2022-06-02,12:50:00,DRY,2.73,12.90,16.7,774.00,1228.2
2022-06-02,12:55:00,DRY,2.25,12.95,11.5,774.00,1228.1
2022-06-02,13:00:00,DRY,2.43,12.90,16.7,774.00,1228.8
2022-06-02,13:05:00,DRY,4.15,13.35,30.0,774.00,1226.6
2022-06-02,13:10:00,DRY,3.37,13.40,19.7,774.00,1227.0
2022-06-02,13:15:00,DRY,4.25,12.85,20.5,774.00,1227.8
2022-06-02,13:20:00,DRY,4.73,13.03,20.3,774.00,1228.1
2022-06-02,13:25:00,DRY,5.10,12.75,20.5,774.00,1226.7
2022-06-02,13:30:00,DRY,2.05,12.40,17.0,774.00,1225.7
2022-06-02,13:35:00,DRY,3.70,12.40,35.0,774.00,1222.1
2022-06-02,13:40:00,DRY,2.87,12.23,22.3,774.00,1222.0
2022-06-02,13:45:00,DRY,3.40,12.60,18.5,774.00,1221.2
2022-06-02,13:50:00,DRY,4.20,12.60,25.3,774.00,1215.5
2022-06-02,13:55:00,DRY,3.75,12.45,23.0,774.00,1211.0
2022-06-02,14:00:00,DRY,2.00,13.23,20.3,774.00,1207.9
2022-06-02,14:05:00,DRY,4.40,12.80,30.5,774.00,1204.5
2022-06-02,14:10:00,DRY,1.80,12.57,20.7,774.00,1197.7
2022-06-02,14:15:00,DRY,2.75,12.75,19.5,774.00,1192.6
2022-06-02,14:20:00,DRY,2.87,12.67,27.3,774.00,1184.5
2022-06-02,14:25:00,DRY,3.05,12.90,24.5,774.00,1179.8
2022-06-02,14:30:00,DRY,3.27,12.87,25.3,774.00,1171.9
2022-06-02,14:35:00,DRY,3.55,13.20,26.0,774.00,1164.7
2022-06-02,14:40:00,DRY,4.57,13.43,24.7,774.00,1153.5
2022-06-02,14:45:00,DRY,4.60,13.20,32.0,774.00,1144.3
2022-06-02,14:50:00,DRY,2.90,13.20,23.3,774.00,1136.3
2022-06-02,14:55:00,DRY,4.95,12.70,24.0,774.00,1125.8